User: anonymous   Login
Location: Cran-Gévrier
(45.9039°N, 6.1012°E)
Time: 08:41:51
(UTC+00:00)
Language:

CZ-4C R/B - Orbit

View from above orbital plane
View from above orbital plane
View from above satellite
View from above satellite

Ground track
Ground track

The orbit data is extracted from the following two-line orbital elements,

1 39211U 13037D   23151.83694214  .00006280  00000-0  32344-3 0  9994
2 39211  98.0722 345.1124 0110823 165.6988 194.7421 15.11535778541566
Epoch (UTC): 31 May 2023 20:05:11
Eccentricity: 0.0110823
inclination: 98.0722°
perigee height: 455 km
apogee height: 608 km
right ascension of ascending node: 345.1124°
argument of perigee: 165.6988°
revolutions per day: 15.11535778
mean anomaly at epoch: 194.7421°
orbit number at epoch: 54156

The dashed part of the orbit path shows where the satellite is in the earth's shadow,  

DLR